Lakeland Region, FL

11:24 PM EST on November 21, 2017 (GMT -0500)
Lakeland Linder Regional

Weather History for KLAL - March, 2014

Change the Weather History Date:

Monday, March 3, 2014

  Actual Average Record
Temperature  
Mean Temperature 68 °F -  
Max Temperature 82 °F 74 °F 87 °F (2001)
Min Temperature 53 °F 55 °F 35 °F (2009)
Cooling Degree Days 2    
Growing Degree Days 18 (Base 50)    
Moisture  
Dew Point 57 °F    
Average Humidity 82    
Maximum Humidity 100    
Minimum Humidity 30    
Precipitation  
Precipitation 0.00 in - - ()
Sea Level Pressure  
Sea Level Pressure 30.05 in    
Wind  
Wind Speed 2 mph (SW)    
Max Wind Speed 15 mph    
Max Gust Speed 23 mph    
Visibility 12 miles    
Events      
Averages and records for this station are not official NWS values.
T = Trace of Precipitation, MM = Missing Value Source: NWS Daily Summary

Daily Weather History Graph

Daily Weather History Graph

Search for Another Location

Airport or City:

Trip Planner

Search our weather history database for the weather conditions in past years. The results will help you decide how hot, cold, wet, or windy it might be!

Date:

Astronomy

Mar. 03, 2014 Rise Set
Actual Time 6:50 AM EST 6:29 PM EST
Civil Twilight 6:27 AM EST 6:53 PM EST
Nautical Twilight 5:59 AM EST 7:20 PM EST
Astronomical Twilight 5:32 AM EST 7:47 PM EST
Moon 8:14 AM EST (3/3) 9:12 PM EST (3/3)
Length of Visible Light 12h 26m
Length of Day
11h 39m
Waxing Crescent, 8% of the Moon is Illuminated
Mar 3
Waxing Crescent
Mar 8
First Quarter
Mar 16
Full
Mar 23
Last Quarter
Mar 30
New

Hourly Weather History & Observations

Time (EST) Temp. Heat Index Dew Point Humidity Pressure Visibility Wind Dir Wind Speed Gust Speed Precip Events Conditions
12:20 AM 59.0 °F - 53.6 °F 82% 30.09 in 10.0 mi Calm Calm - N/A   Scattered Clouds
12:35 AM 59.0 °F - 53.6 °F 82% 30.09 in 10.0 mi Calm Calm - N/A   Mostly Cloudy
12:55 AM 57.2 °F - 53.6 °F 88% 30.08 in 10.0 mi Calm Calm - N/A   Mostly Cloudy
1:15 AM 57.2 °F - 55.4 °F 94% 30.08 in 10.0 mi Calm Calm - N/A   Overcast
1:35 AM 59.0 °F - 55.4 °F 88% 30.08 in 10.0 mi Calm Calm - N/A   Overcast
1:55 AM 57.2 °F - 55.4 °F 94% 30.07 in 10.0 mi Calm Calm - N/A   Mostly Cloudy
2:15 AM 57.2 °F - 55.4 °F 94% 30.07 in 10.0 mi Calm Calm - N/A   Overcast
2:35 AM 55.4 °F - 53.6 °F 94% 30.04 in 10.0 mi SE 3.5 mph - N/A   Scattered Clouds
2:55 AM 55.4 °F - 53.6 °F 94% 30.04 in 10.0 mi Calm Calm - N/A   Clear
3:15 AM 55.4 °F - 55.4 °F 100% 30.03 in 10.0 mi Calm Calm - N/A   Clear
3:35 AM 55.4 °F - 55.4 °F 100% 30.04 in 10.0 mi Calm Calm - N/A   Clear
3:55 AM 53.6 °F - 53.6 °F 100% 30.03 in 10.0 mi Calm Calm - N/A   Clear
4:15 AM 53.6 °F - 53.6 °F 100% 30.03 in 10.0 mi Calm Calm - N/A   Scattered Clouds
4:35 AM 55.4 °F - 55.4 °F 100% 30.03 in 7.0 mi Calm Calm - N/A   Mostly Cloudy
4:55 AM 53.6 °F - 53.6 °F 100% 30.04 in 10.0 mi Calm Calm - N/A   Mostly Cloudy
5:15 AM 55.4 °F - 53.6 °F 94% 30.04 in 10.0 mi Calm Calm - N/A   Scattered Clouds
5:35 AM 55.4 °F - 55.4 °F 100% 30.05 in 10.0 mi Calm Calm - N/A   Mostly Cloudy
5:50 AM 57.2 °F - 55.4 °F 94% 30.05 in 10.0 mi Calm Calm - N/A   Mostly Cloudy
6:50 AM 55.4 °F - 55.4 °F 100% 30.06 in 10.0 mi Calm Calm - N/A   Partly Cloudy
7:45 AM 60.8 °F - 59.0 °F 94% 30.06 in 10.0 mi Calm Calm - N/A   Clear
8:45 AM 66.2 °F - 57.2 °F 73% 30.09 in 10.0 mi SSW 4.6 mph - N/A   Clear
9:45 AM 73.4 °F - 60.8 °F 65% 30.10 in 10.0 mi SSW 9.2 mph - N/A   Partly Cloudy
10:55 AM 75.2 °F - 57.2 °F 53% 30.09 in 10.0 mi SW 15.0 mph 19.6 mph N/A   Scattered Clouds
11:50 AM 78.8 °F - 57.2 °F 47% 30.08 in 15.0 mi SW 13.8 mph 18.4 mph N/A   Scattered Clouds
12:50 PM 80.6 °F 80.5 °F 55.4 °F 42% 30.05 in 20.0 mi WSW 13.8 mph 18.4 mph N/A   Partly Cloudy
1:51 PM 80.6 °F 80.3 °F 53.6 °F 39% 30.03 in 20.0 mi SW 8.1 mph 18.4 mph N/A   Partly Cloudy
2:54 PM 82.4 °F - 48.2 °F 30% 30.01 in 20.0 mi West 11.5 mph 23.0 mph N/A   Partly Cloudy
3:53 PM 80.6 °F 80.3 °F 53.6 °F 39% 30.00 in 20.0 mi West 13.8 mph 19.6 mph N/A   Partly Cloudy
4:52 PM 78.8 °F - 57.2 °F 47% 30.01 in 20.0 mi West 11.5 mph 17.3 mph N/A   Scattered Clouds
5:56 PM 75.2 °F - 57.2 °F 53% 30.02 in 20.0 mi WSW 9.2 mph - N/A   Scattered Clouds
6:55 PM 71.6 °F - 57.2 °F 60% 30.03 in 20.0 mi WSW 5.8 mph - N/A   Scattered Clouds
7:50 PM 69.8 °F - 59.0 °F 68% 30.03 in 15.0 mi WSW 4.6 mph - N/A   Clear
8:51 PM 68.0 °F - 60.8 °F 78% 30.05 in 15.0 mi WSW 5.8 mph - N/A   Scattered Clouds
9:51 PM 64.4 °F - 60.8 °F 88% 30.05 in 15.0 mi SW 3.5 mph - N/A   Scattered Clouds
9:55 PM 62.6 °F - 60.8 °F 94% 30.05 in 10.0 mi SW 3.5 mph - N/A   Clear
10:15 PM 62.6 °F - 62.6 °F 100% 30.05 in 10.0 mi Calm Calm - N/A   Clear
10:35 PM 62.6 °F - 62.6 °F 100% 30.05 in 10.0 mi Calm Calm - N/A   Scattered Clouds
10:55 PM 62.6 °F - 62.6 °F 100% 30.05 in 10.0 mi SW 3.5 mph - N/A   Clear
11:15 PM 60.8 °F - 60.8 °F 100% 30.05 in 7.0 mi WSW 3.5 mph - N/A   Clear
11:35 PM 60.8 °F - 60.8 °F 100% 30.05 in 7.0 mi Calm Calm - N/A   Clear